This demonstration page uses our WeatherBlox Daily Observations layout. Learn more.

Left ArrowRight Arrow

41.12389, -100.76542

Hourly Observations for July 21, 2015

Temp ( °F °C ) Dew Point ( °F °C ) Humidity (%) Winds ( mph kmh ) Pressure ( in mb ) Visibility ( mi km ) Precip ( " mm )
12:53 am 00:53 Clear 61 16.1 57 13.9 87 87 E 3 6 30.00 1016 10 16 0.00 0.00
1:53 am 01:53 Clear 59 15 56 13.3 90 90 Calm 29.99 1016 10 16 0.00 0.00
2:53 am 02:53 Clear 59 15 56 13.3 90 90 Calm 29.98 1015 10 16 0.00 0.00
3:53 am 03:53 Clear 56 13.3 54 12.2 93 93 Calm 29.98 1015 10 16 0.00 0.00
4:53 am 04:53 Clear 56 13.3 53 11.7 90 90 Calm 29.98 1015 10 16 0.00 0.00
5:53 am 05:53 Clear 56 13.3 54 12.2 93 93 Calm 29.96 1015 10 16 0.00 0.00
6:53 am 06:53 Sunny 56 13.3 54 12.2 93 93 Calm 29.97 1015 10 16 0.00 0.00
7:53 am 07:53 Sunny 62 16.7 57 13.9 84 84 E 5 7 30.00 1016 10 16 0.00 0.00
8:53 am 08:53 Sunny 66 18.9 59 15 78 78 E 5 7 30.01 1016 10 16 0.00 0.00
9:53 am 09:53 Sunny 73 22.8 58 14.4 59 59 S 14 22 30.00 1016 10 16 0.00 0.00
10:53 am 10:53 Sunny 77 25 57 13.9 50 50 S 14 22 29.99 1016 10 16 0.00 0.00
11:53 am 11:53 Sunny 79 26.1 58 14.4 49 49 S 10 17 29.99 1016 10 16 0.00 0.00
12:53 pm 12:53 Sunny 81 27.2 58 14.4 45 45 S 14 22 29.97 1015 10 16 0.00 0.00
1:53 pm 13:53 Sunny 79 26.1 56 13.3 45 45 S 12 19 29.96 1015 10 16 0.00 0.00
2:53 pm 14:53 Sunny 84 28.9 56 13.3 38 38 S 12 19 29.93 1014 10 16 0.00 0.00
3:53 pm 15:53 Sunny 81 27.2 55 12.8 41 41 S 12 19 29.93 1014 10 16 0.00 0.00
4:53 pm 16:53 Mostly Sunny 83 28.3 57 13.9 41 41 SSE 8 13 29.90 1013 10 16 0.00 0.00
5:53 pm 17:53 Sunny 82 27.8 56 13.3 41 41 SE 9 15 29.89 1012 10 16 0.00 0.00
6:53 pm 18:53 Sunny 79 26.1 56 13.3 45 45 SE 7 11 29.89 1012 10 16 0.00 0.00
7:53 pm 19:53 Sunny 78 25.6 59 15 52 52 SE 7 11 29.88 1012 10 16 0.00 0.00
8:53 pm 20:53 Sunny 72 22.2 61 16.1 68 68 SE 6 9 29.90 1013 10 16 0.00 0.00
9:53 pm 21:53 Clear 74 23.3 58 14.4 57 57 SE 9 15 29.88 1012 10 16 0.00 0.00
10:53 pm 22:53 Clear 72 22.2 59 15 64 64 ESE 12 19 29.88 1012 10 16 0.00 0.00
11:53 pm 23:53 Clear 69 20.6 59 15 70 70 ESE 9 15 29.87 1012 10 16 0.00 0.00

Powered by AerisWeather